STARLINK-34277, 64156

Orbit data source: Space-Track

STARLINK-34277, 64156 is a payload satellite owned by SpaceX/Seattle (US) in SSO that was launched on Tue, 27 May 2025 UTC via an FALCON 9 launch vehicle from the Air Force Western Test Range (AFWTR). Payload-class satellites include a variety of spacecraft equipped with specific instruments for various scientific and technological missions. These include communications satellites like Starlink; space stations such as the ISS; scientific satellites like the Hubble; Earth observation satellites from companies like Planet Labs, Umbra, and HawkEye 360; GPS; miniature CubeSats for education and research; and military/defense satellites.

Loading next visibility...
Identifier
64156, 2025-112L
Orbit
SSO
Country
Flag of USUS
Related business
Manufacturer
SpaceX/Seattle
Mission
Operational Commercial Communications
Bus & Motor
STARLINK V2MO, Unknown motor
Mass
575 kg wet, ~530 kg dry
Launch date (UTC)
2025-05-27 (1 year ago)
Launch vehicle
FALCON 9
Launch site
Air Force Western Test Range (AFWTR)
Object type
Payload
Rocket body
Debris
Shape & HBR
Box + 2 Pan, 17.7 m
Radar Cross Section
36.964 m², Large (>1 m²)

Expand to show TLE details & history
Last TLE update: 6 hours ago

TLE from 6 hours ago
0 STARLINK-34277
1 64156U 25112L   26145.56396606  .00005240  00000-0  36688-3 0  9997
2 64156  97.4484 196.8929 0001096 157.0584 203.0692 15.05660342 54878
Epoch: 2026-05-25T13:32Z
TLE epoch observation values (Epoch: 2026-05-25T13:32:06.667Z)
Latitude
-0.00007°
Longitude
110.71518°
Altitude
553.248 km
Speed
7.585 km/s
True Right ascension
13h 07m 34s
True Declination
0° 00' 00"
Sunlit
Object was in full shadow at epoch
Visualization orbit readout
Latitude
Unknown
Longitude
Unknown
Altitude
Unknown
Speed
Unknown
Apparent Right ascension
Unknown
Apparent Declination
Unknown
Sunlit
N/A
Visualization observer readout
Local Sidereal Time
04:52:55
Azimuth
Unknown
Elevation
Unknown
Doppler factor
Unknown
Orbital elements
Apogee altitude
547.225 km
Perigee altitude
545.707 km
Semi-major axis
6,924.603 km
Eccentricity
0.00011
Inclination
97.4484°
RAAN
196.8929°
Arg. of periapsis
157.0584°
True anomaly
203.06428°
Mean anomaly
203.0692°
Eccentric anomaly
203.06674°
Mean motion
3.76661 °/min
Orbital period
95.58 mins
BSTAR
0.00036688
Loading maneuver chart data...
Computing Atmospheric mass density...
Loading historical data...
Loading historical data...
Loading historical data...
Loading historical data...
Loading historical data...
Loading historical data...
Loading historical data...

Documentation

Showing up to 5 results
|